GFSFLT1_prec_precacc_060.txt.gz
Total_Precipitation_Accumulation
0.00 0.00 0.00 0.00 0.01 0.06 0.42 0.76 0.96 1.09 1.66 1.49 0.86 0.27 0.08 0.02 0.00 0.00 0.00 0.00 0.00 0.00 0.00 0.00 0.00 0.00 0.00 0.00 0.00 0.00 0.00 0.00
0.00 0.00 0.02 0.04 0.08 0.27 0.70 0.92 1.06 0.90 0.63 0.23 0.05 0.01 0.01 0.00 0.00 0.00 0.00 0.00 0.00 0.00 0.00 0.00 0.00 0.00 0.00 0.00 0.00 0.00 0.00 0.00
0.01 0.03 0.09 0.13 0.26 0.36 0.39 0.22 0.16 0.04 0.01 0.00 0.00 0.00 0.00 0.00 0.00 0.00 0.00 0.00 0.00 0.00 0.00 0.00 0.00 0.00 0.00 0.00 0.00 0.00 0.00 0.00
0.02 0.08 0.12 0.14 0.14 0.17 0.06 0.04 0.04 0.00 0.00 0.00 0.00 0.00 0.00 0.00 0.00 0.00 0.00 0.00 0.00 0.00 0.00 0.00 0.00 0.00 0.00 0.00 0.00 0.00 0.00 0.00
0.01 0.01 0.01 0.01 0.01 0.03 0.02 0.03 0.02 0.00 0.00 0.00 0.00 0.00 0.00 0.00 0.00 0.00 0.00 0.00 0.00 0.00 0.00 0.00 0.00 0.00 0.00 0.00 0.00 0.00 0.00 0.00
0.00 0.00 0.00 0.00 0.00 0.02 0.08 0.04 0.01 0.00 0.00 0.00 0.00 0.00 0.00 0.00 0.00 0.00 0.00 0.00 0.00 0.00 0.00 0.00 0.00 0.00 0.00 0.00 0.00 0.00 0.00 0.00
0.00 0.00 0.00 0.00 0.03 0.06 0.04 0.00 0.00 0.00 0.00 0.00 0.00 0.00 0.00 0.00 0.00 0.00 0.00 0.00 0.00 0.00 0.00 0.00 0.00 0.00 0.00 0.00 0.00 0.00 0.00 0.01
0.00 0.02 0.05 0.03 0.02 0.01 0.00 0.00 0.00 0.00 0.00 0.00 0.00 0.00 0.00 0.00 0.00 0.00 0.00 0.00 0.00 0.00 0.00 0.00 0.00 0.00 0.00 0.01 0.02 0.03 0.06 0.11
0.00 0.01 0.02 0.00 0.00 0.00 0.00 0.00 0.00 0.00 0.00 0.00 0.00 0.00 0.00 0.00 0.00 0.00 0.00 0.00 0.00 0.01 0.00 0.00 0.00 0.01 0.02 0.08 0.14 0.22 0.36 0.50
0.00 0.00 0.00 0.00 0.00 0.00 0.00 0.00 0.00 0.00 0.00 0.00 0.00 0.00 0.00 0.00 0.00 0.00 0.00 0.01 0.00 0.00 0.00 0.01 0.04 0.10 0.16 0.20 0.25 0.33 0.39 0.35
0.00 0.00 0.00 0.00 0.00 0.00 0.00 0.00 0.00 0.00 0.00 0.00 0.00 0.00 0.00 0.00 0.00 0.00 0.00 0.00 0.00 0.01 0.04 0.12 0.18 0.17 0.13 0.14 0.15 0.15 0.16 0.16
0.00 0.00 0.00 0.00 0.00 0.00 0.00 0.00 0.00 0.00 0.00 0.00 0.00 0.00 0.00 0.00 0.00 0.00 0.00 0.00 0.01 0.05 0.09 0.08 0.07 0.09 0.09 0.10 0.09 0.07 0.06 0.04
0.00 0.00 0.00 0.00 0.00 0.00 0.00 0.00 0.00 0.00 0.00 0.00 0.00 0.00 0.01 0.01 0.00 0.00 0.00 0.00 0.01 0.02 0.04 0.09 0.11 0.09 0.07 0.05 0.03 0.01 0.00 0.00
0.00 0.00 0.00 0.00 0.00 0.00 0.00 0.00 0.00 0.01 0.01 0.00 0.00 0.00 0.00 0.00 0.00 0.00 0.00 0.01 0.04 0.08 0.12 0.08 0.04 0.02 0.01 0.00 0.00 0.00 0.00 0.00
0.00 0.00 0.00 0.00 0.00 0.00 0.01 0.01 0.02 0.02 0.01 0.00 0.00 0.00 0.00 0.01 0.01 0.01 0.03 0.05 0.07 0.07 0.05 0.03 0.01 0.01 0.02 0.01 0.00 0.00 0.00 0.00
0.00 0.00 0.01 0.01 0.01 0.02 0.02 0.02 0.01 0.00 0.00 0.00 0.00 0.01 0.01 0.03 0.05 0.05 0.08 0.07 0.04 0.03 0.03 0.02 0.03 0.04 0.02 0.00 0.00 0.00 0.01 0.01
0.01 0.02 0.01 0.02 0.02 0.02 0.01 0.00 0.00 0.00 0.00 0.00 0.03 0.07 0.15 0.21 0.19 0.11 0.04 0.03 0.06 0.06 0.04 0.04 0.01 0.00 0.00 0.00 0.00 0.00 0.00 0.01
0.02 0.01 0.01 0.01 0.00 0.00 0.00 0.00 0.00 0.01 0.01 0.03 0.07 0.11 0.14 0.08 0.02 0.02 0.07 0.09 0.06 0.03 0.01 0.00 0.01 0.03 0.00 0.00 0.00 0.00 0.01 0.01
0.02 0.00 0.00 0.00 0.00 0.00 0.00 0.00 0.02 0.02 0.01 0.02 0.02 0.01 0.00 0.01 0.05 0.08 0.08 0.06 0.03 0.01 0.00 0.01 0.02 0.03 0.00 0.00 0.00 0.01 0.01 0.01

GFSFLT1_prec_precacc_063.txt.gz
Total_Precipitation_Accumulation
0.00 0.00 0.00 0.00 0.01 0.06 0.42 0.76 0.96 1.09 1.66 1.49 0.86 0.27 0.08 0.02 0.00 0.00 0.00 0.00 0.00 0.00 0.00 0.00 0.00 0.00 0.00 0.00 0.00 0.00 0.00 0.00
0.00 0.00 0.02 0.04 0.08 0.27 0.70 0.92 1.06 0.90 0.63 0.23 0.05 0.01 0.01 0.00 0.00 0.00 0.00 0.00 0.00 0.00 0.00 0.00 0.00 0.00 0.00 0.00 0.00 0.00 0.00 0.00
0.01 0.03 0.09 0.13 0.26 0.36 0.39 0.22 0.16 0.04 0.01 0.00 0.00 0.00 0.00 0.00 0.00 0.00 0.00 0.00 0.00 0.00 0.00 0.00 0.00 0.00 0.00 0.00 0.00 0.00 0.00 0.00
0.02 0.08 0.12 0.14 0.14 0.17 0.06 0.04 0.04 0.01 0.02 0.03 0.02 0.00 0.00 0.00 0.00 0.00 0.00 0.00 0.00 0.00 0.00 0.00 0.00 0.00 0.00 0.00 0.00 0.00 0.00 0.00
0.01 0.01 0.01 0.02 0.01 0.03 0.02 0.06 0.09 0.06 0.06 0.09 0.04 0.00 0.00 0.00 0.00 0.00 0.00 0.00 0.00 0.00 0.00 0.00 0.00 0.00 0.00 0.00 0.00 0.00 0.00 0.00
0.00 0.01 0.00 0.00 0.03 0.03 0.09 0.12 0.10 0.04 0.05 0.04 0.00 0.00 0.00 0.00 0.00 0.00 0.00 0.00 0.00 0.00 0.00 0.00 0.00 0.00 0.00 0.00 0.00 0.00 0.00 0.00
0.01 0.01 0.01 0.02 0.10 0.15 0.13 0.08 0.04 0.02 0.03 0.00 0.00 0.00 0.00 0.00 0.00 0.00 0.00 0.00 0.00 0.00 0.00 0.00 0.00 0.00 0.00 0.00 0.00 0.00 0.00 0.01
0.00 0.02 0.06 0.06 0.13 0.14 0.10 0.05 0.02 0.01 0.01 0.00 0.00 0.00 0.00 0.00 0.00 0.00 0.00 0.00 0.00 0.00 0.01 0.01 0.00 0.00 0.00 0.01 0.02 0.03 0.06 0.11
0.00 0.02 0.04 0.06 0.12 0.07 0.05 0.00 0.00 0.00 0.00 0.02 0.01 0.00 0.00 0.00 0.00 0.00 0.00 0.00 0.01 0.02 0.01 0.00 0.00 0.01 0.02 0.08 0.14 0.22 0.36 0.50
0.00 0.01 0.02 0.04 0.02 0.01 0.00 0.00 0.00 0.00 0.00 0.00 0.00 0.00 0.00 0.00 0.00 0.01 0.03 0.02 0.02 0.00 0.00 0.01 0.04 0.10 0.16 0.20 0.25 0.33 0.39 0.35
0.00 0.00 0.01 0.01 0.00 0.00 0.00 0.00 0.00 0.00 0.00 0.00 0.00 0.00 0.00 0.00 0.01 0.02 0.02 0.02 0.01 0.01 0.04 0.12 0.18 0.17 0.13 0.14 0.15 0.15 0.16 0.16
0.00 0.00 0.00 0.00 0.00 0.00 0.00 0.00 0.00 0.00 0.00 0.00 0.00 0.00 0.00 0.01 0.02 0.03 0.03 0.01 0.01 0.05 0.09 0.08 0.07 0.09 0.09 0.10 0.09 0.07 0.06 0.04
0.00 0.00 0.00 0.00 0.00 0.00 0.00 0.00 0.00 0.00 0.00 0.00 0.00 0.00 0.02 0.06 0.07 0.03 0.00 0.00 0.01 0.02 0.04 0.09 0.11 0.09 0.07 0.05 0.03 0.01 0.00 0.00
0.00 0.00 0.00 0.00 0.00 0.00 0.00 0.00 0.00 0.01 0.01 0.01 0.01 0.02 0.02 0.01 0.00 0.00 0.00 0.01 0.04 0.08 0.12 0.08 0.04 0.02 0.01 0.00 0.00 0.00 0.00 0.00
0.00 0.00 0.00 0.01 0.02 0.01 0.01 0.02 0.03 0.04 0.02 0.02 0.01 0.01 0.01 0.01 0.01 0.01 0.03 0.05 0.07 0.07 0.05 0.03 0.01 0.01 0.02 0.01 0.00 0.00 0.00 0.00
0.01 0.01 0.02 0.04 0.03 0.03 0.04 0.04 0.04 0.03 0.02 0.01 0.01 0.01 0.01 0.03 0.05 0.05 0.08 0.07 0.04 0.03 0.03 0.02 0.03 0.04 0.02 0.00 0.00 0.00 0.01 0.01
0.02 0.03 0.03 0.03 0.03 0.03 0.03 0.04 0.05 0.03 0.01 0.00 0.03 0.07 0.15 0.21 0.19 0.11 0.04 0.03 0.06 0.06 0.04 0.04 0.01 0.00 0.00 0.00 0.00 0.00 0.00 0.01
0.02 0.02 0.02 0.01 0.02 0.04 0.04 0.04 0.02 0.01 0.01 0.03 0.07 0.11 0.14 0.08 0.02 0.02 0.07 0.09 0.06 0.03 0.01 0.00 0.01 0.03 0.00 0.00 0.00 0.00 0.01 0.01
0.02 0.00 0.00 0.00 0.02 0.02 0.01 0.01 0.02 0.02 0.01 0.02 0.02 0.01 0.00 0.01 0.05 0.08 0.08 0.06 0.03 0.01 0.00 0.01 0.02 0.03 0.00 0.00 0.00 0.01 0.01 0.01

GFSFLT1_prec_precacc_066.txt.gz
Total_Precipitation_Accumulation
0.00 0.00 0.00 0.00 0.01 0.06 0.42 0.77 0.96 1.09 1.66 1.49 0.87 0.30 0.11 0.05 0.01 0.00 0.00 0.00 0.00 0.00 0.00 0.00 0.00 0.00 0.00 0.00 0.00 0.00 0.00 0.00
0.00 0.00 0.02 0.04 0.08 0.27 0.70 0.92 1.06 0.90 0.63 0.23 0.05 0.03 0.02 0.01 0.00 0.00 0.00 0.00 0.00 0.00 0.00 0.00 0.00 0.00 0.00 0.00 0.00 0.00 0.00 0.00
0.01 0.03 0.09 0.13 0.26 0.36 0.39 0.22 0.16 0.04 0.01 0.00 0.01 0.01 0.00 0.00 0.00 0.00 0.00 0.00 0.00 0.00 0.00 0.00 0.00 0.00 0.00 0.00 0.00 0.00 0.00 0.00
0.02 0.08 0.12 0.14 0.14 0.17 0.06 0.04 0.04 0.02 0.02 0.06 0.09 0.04 0.01 0.00 0.00 0.00 0.00 0.00 0.00 0.00 0.00 0.00 0.00 0.00 0.00 0.00 0.00 0.00 0.00 0.00
0.01 0.01 0.01 0.02 0.01 0.03 0.02 0.06 0.09 0.09 0.10 0.19 0.16 0.07 0.01 0.00 0.00 0.00 0.00 0.00 0.00 0.00 0.00 0.00 0.00 0.00 0.00 0.00 0.00 0.00 0.00 0.00
0.00 0.01 0.02 0.01 0.04 0.04 0.09 0.13 0.14 0.09 0.13 0.20 0.12 0.07 0.02 0.00 0.00 0.00 0.00 0.00 0.00 0.00 0.00 0.00 0.00 0.00 0.00 0.00 0.00 0.00 0.00 0.00
0.01 0.02 0.01 0.02 0.11 0.17 0.15 0.13 0.12 0.08 0.13 0.17 0.13 0.05 0.01 0.00 0.00 0.00 0.00 0.00 0.00 0.00 0.00 0.00 0.00 0.00 0.00 0.00 0.00 0.00 0.00 0.01
0.00 0.02 0.06 0.07 0.18 0.21 0.14 0.11 0.10 0.10 0.12 0.10 0.08 0.02 0.00 0.00 0.00 0.00 0.00 0.00 0.00 0.00 0.01 0.01 0.00 0.00 0.00 0.01 0.02 0.03 0.06 0.11
0.00 0.02 0.05 0.08 0.27 0.20 0.08 0.02 0.01 0.02 0.06 0.08 0.04 0.03 0.04 0.00 0.00 0.00 0.00 0.01 0.02 0.03 0.03 0.02 0.01 0.01 0.02 0.08 0.14 0.22 0.36 0.50
0.00 0.01 0.03 0.05 0.16 0.07 0.00 0.00 0.00 0.00 0.02 0.03 0.03 0.03 0.01 0.00 0.00 0.01 0.03 0.03 0.02 0.02 0.05 0.03 0.04 0.10 0.16 0.20 0.25 0.33 0.39 0.35
0.00 0.00 0.01 0.01 0.05 0.01 0.00 0.00 0.00 0.00 0.00 0.01 0.01 0.00 0.00 0.00 0.01 0.02 0.02 0.02 0.05 0.08 0.06 0.12 0.18 0.17 0.13 0.14 0.15 0.15 0.16 0.16
0.00 0.00 0.00 0.00 0.02 0.03 0.00 0.00 0.00 0.00 0.00 0.00 0.00 0.00 0.00 0.01 0.02 0.03 0.04 0.05 0.05 0.06 0.09 0.08 0.07 0.09 0.09 0.10 0.09 0.07 0.06 0.04
0.00 0.00 0.00 0.00 0.04 0.05 0.00 0.00 0.00 0.00 0.00 0.00 0.00 0.00 0.02 0.06 0.07 0.05 0.03 0.02 0.01 0.02 0.04 0.09 0.11 0.09 0.07 0.05 0.03 0.01 0.00 0.00
0.00 0.00 0.00 0.01 0.02 0.03 0.01 0.01 0.01 0.01 0.02 0.01 0.02 0.02 0.02 0.02 0.04 0.05 0.02 0.01 0.04 0.08 0.12 0.08 0.04 0.02 0.01 0.00 0.00 0.00 0.00 0.00
0.00 0.00 0.00 0.04 0.08 0.08 0.05 0.08 0.07 0.06 0.05 0.04 0.03 0.03 0.02 0.02 0.02 0.01 0.03 0.05 0.07 0.07 0.05 0.03 0.01 0.01 0.02 0.01 0.00 0.00 0.00 0.00
0.01 0.01 0.03 0.08 0.10 0.09 0.10 0.09 0.08 0.06 0.06 0.04 0.05 0.03 0.01 0.03 0.05 0.05 0.08 0.07 0.04 0.03 0.03 0.02 0.03 0.04 0.02 0.00 0.00 0.00 0.01 0.01
0.02 0.03 0.03 0.07 0.08 0.07 0.07 0.06 0.09 0.08 0.06 0.07 0.06 0.07 0.15 0.21 0.19 0.11 0.04 0.03 0.06 0.06 0.04 0.04 0.01 0.00 0.00 0.00 0.00 0.00 0.00 0.01
0.02 0.02 0.03 0.04 0.04 0.06 0.08 0.08 0.07 0.05 0.03 0.03 0.07 0.11 0.14 0.08 0.02 0.02 0.07 0.09 0.06 0.03 0.01 0.00 0.01 0.03 0.00 0.00 0.00 0.00 0.01 0.01
0.02 0.00 0.01 0.01 0.03 0.02 0.02 0.01 0.02 0.02 0.01 0.02 0.02 0.01 0.00 0.01 0.05 0.08 0.08 0.06 0.03 0.01 0.00 0.01 0.02 0.03 0.00 0.00 0.00 0.01 0.01 0.01

GFSFLT1_prec_precacc_072.txt.gz
Total_Precipitation_Accumulation
0.00 0.00 0.00 0.00 0.01 0.06 0.42 0.77 1.02 1.10 1.66 1.49 0.87 0.31 0.17 0.14 0.11 0.11 0.10 0.01 0.00 0.00 0.00 0.00 0.00 0.00 0.00 0.00 0.00 0.00 0.00 0.00
0.00 0.00 0.02 0.04 0.08 0.27 0.70 0.92 1.09 0.90 0.63 0.23 0.05 0.06 0.10 0.14 0.08 0.08 0.04 0.00 0.00 0.00 0.00 0.00 0.00 0.00 0.00 0.00 0.00 0.00 0.00 0.00
0.01 0.03 0.09 0.13 0.26 0.36 0.39 0.22 0.17 0.06 0.01 0.00 0.01 0.02 0.06 0.08 0.04 0.02 0.00 0.00 0.00 0.00 0.00 0.00 0.00 0.00 0.00 0.00 0.00 0.00 0.00 0.00
0.02 0.08 0.12 0.14 0.14 0.17 0.06 0.04 0.05 0.03 0.03 0.06 0.09 0.09 0.06 0.05 0.04 0.03 0.00 0.00 0.00 0.00 0.00 0.00 0.00 0.00 0.00 0.00 0.00 0.00 0.00 0.00
0.01 0.01 0.01 0.02 0.01 0.03 0.02 0.06 0.09 0.09 0.11 0.20 0.18 0.13 0.13 0.09 0.05 0.02 0.00 0.00 0.00 0.00 0.00 0.00 0.00 0.00 0.00 0.00 0.00 0.00 0.00 0.00
0.00 0.01 0.02 0.01 0.04 0.04 0.09 0.13 0.14 0.10 0.15 0.23 0.18 0.15 0.14 0.12 0.07 0.04 0.00 0.00 0.00 0.00 0.00 0.00 0.00 0.00 0.00 0.00 0.00 0.00 0.00 0.00
0.01 0.02 0.02 0.03 0.11 0.17 0.15 0.13 0.14 0.14 0.20 0.25 0.24 0.18 0.12 0.09 0.07 0.04 0.01 0.00 0.00 0.00 0.00 0.00 0.00 0.00 0.00 0.00 0.00 0.00 0.00 0.01
0.00 0.02 0.06 0.09 0.20 0.21 0.16 0.13 0.11 0.15 0.19 0.25 0.20 0.13 0.07 0.06 0.03 0.01 0.00 0.00 0.00 0.00 0.01 0.01 0.00 0.01 0.02 0.03 0.02 0.03 0.06 0.11
0.00 0.02 0.05 0.10 0.30 0.22 0.10 0.04 0.03 0.05 0.08 0.15 0.13 0.11 0.09 0.04 0.02 0.00 0.00 0.01 0.02 0.03 0.03 0.03 0.05 0.07 0.06 0.10 0.14 0.22 0.36 0.50
0.00 0.01 0.03 0.07 0.19 0.13 0.04 0.01 0.00 0.01 0.02 0.06 0.09 0.07 0.04 0.05 0.03 0.01 0.03 0.03 0.02 0.02 0.07 0.10 0.12 0.16 0.17 0.20 0.25 0.33 0.39 0.35
0.00 0.00 0.01 0.02 0.07 0.04 0.02 0.02 0.01 0.00 0.01 0.04 0.04 0.04 0.05 0.05 0.06 0.03 0.02 0.02 0.05 0.10 0.14 0.24 0.29 0.20 0.13 0.14 0.15 0.15 0.16 0.16
0.00 0.00 0.00 0.00 0.03 0.04 0.02 0.05 0.02 0.00 0.00 0.02 0.03 0.05 0.05 0.09 0.11 0.08 0.06 0.07 0.09 0.18 0.27 0.22 0.10 0.09 0.09 0.10 0.09 0.07 0.06 0.04
0.00 0.00 0.00 0.00 0.05 0.06 0.03 0.05 0.03 0.01 0.01 0.03 0.06 0.09 0.11 0.13 0.13 0.09 0.11 0.15 0.13 0.09 0.08 0.10 0.11 0.09 0.07 0.05 0.03 0.01 0.00 0.00
0.00 0.00 0.00 0.01 0.03 0.07 0.04 0.06 0.04 0.04 0.08 0.10 0.11 0.12 0.11 0.11 0.16 0.23 0.22 0.16 0.10 0.10 0.13 0.08 0.04 0.02 0.01 0.00 0.00 0.00 0.00 0.00
0.00 0.00 0.00 0.04 0.10 0.14 0.10 0.22 0.17 0.21 0.19 0.14 0.10 0.08 0.08 0.11 0.15 0.22 0.23 0.16 0.11 0.09 0.05 0.03 0.01 0.01 0.02 0.01 0.00 0.00 0.00 0.00
0.01 0.01 0.03 0.08 0.14 0.16 0.18 0.22 0.22 0.21 0.20 0.15 0.11 0.18 0.30 0.32 0.34 0.28 0.17 0.10 0.06 0.04 0.03 0.02 0.03 0.04 0.02 0.00 0.00 0.00 0.01 0.01
0.02 0.03 0.03 0.09 0.16 0.14 0.12 0.18 0.18 0.13 0.09 0.10 0.21 0.30 0.29 0.30 0.26 0.15 0.06 0.03 0.06 0.06 0.04 0.04 0.01 0.00 0.00 0.00 0.00 0.00 0.00 0.01
0.02 0.02 0.03 0.04 0.10 0.14 0.16 0.14 0.10 0.07 0.04 0.05 0.09 0.12 0.15 0.08 0.02 0.02 0.07 0.09 0.06 0.03 0.01 0.00 0.01 0.03 0.00 0.00 0.00 0.00 0.01 0.01
0.02 0.00 0.01 0.01 0.03 0.04 0.05 0.04 0.04 0.03 0.02 0.02 0.02 0.01 0.00 0.01 0.05 0.08 0.08 0.06 0.03 0.01 0.00 0.01 0.02 0.03 0.00 0.00 0.00 0.01 0.01 0.01

GFSFLT1_prec_precacc_075.txt.gz
Total_Precipitation_Accumulation
0.00 0.00 0.00 0.00 0.01 0.06 0.43 0.81 1.13 1.21 1.71 1.50 0.87 0.33 0.25 0.20 0.16 0.17 0.11 0.02 0.00 0.00 0.00 0.00 0.00 0.00 0.00 0.00 0.00 0.00 0.00 0.00
0.00 0.00 0.02 0.04 0.08 0.27 0.70 0.97 1.19 0.95 0.65 0.23 0.05 0.07 0.12 0.17 0.12 0.10 0.05 0.02 0.00 0.00 0.00 0.00 0.00 0.00 0.00 0.00 0.00 0.00 0.00 0.00
0.01 0.03 0.09 0.13 0.26 0.36 0.40 0.27 0.25 0.10 0.01 0.00 0.01 0.03 0.07 0.11 0.11 0.04 0.01 0.01 0.00 0.00 0.00 0.00 0.00 0.00 0.00 0.00 0.00 0.00 0.00 0.00
0.02 0.08 0.12 0.14 0.14 0.17 0.06 0.05 0.11 0.09 0.05 0.06 0.09 0.14 0.08 0.07 0.09 0.04 0.02 0.01 0.00 0.00 0.00 0.00 0.00 0.00 0.00 0.00 0.00 0.00 0.00 0.00
0.01 0.01 0.01 0.02 0.01 0.03 0.02 0.06 0.10 0.13 0.17 0.21 0.18 0.15 0.14 0.09 0.05 0.04 0.03 0.02 0.00 0.00 0.00 0.00 0.00 0.00 0.00 0.00 0.00 0.00 0.00 0.00
0.00 0.01 0.02 0.01 0.04 0.04 0.09 0.13 0.14 0.11 0.16 0.26 0.18 0.16 0.16 0.15 0.08 0.07 0.07 0.05 0.01 0.00 0.00 0.00 0.00 0.00 0.00 0.00 0.00 0.00 0.00 0.00
0.01 0.02 0.02 0.03 0.11 0.17 0.15 0.13 0.14 0.14 0.20 0.26 0.24 0.18 0.13 0.09 0.08 0.07 0.04 0.01 0.00 0.00 0.00 0.00 0.00 0.00 0.00 0.00 0.00 0.00 0.00 0.01
0.00 0.02 0.06 0.09 0.20 0.21 0.16 0.13 0.11 0.15 0.19 0.25 0.20 0.14 0.08 0.07 0.04 0.03 0.03 0.02 0.01 0.00 0.01 0.01 0.00 0.01 0.02 0.03 0.03 0.03 0.06 0.11
0.00 0.02 0.05 0.10 0.30 0.22 0.10 0.04 0.03 0.05 0.08 0.15 0.13 0.11 0.09 0.04 0.03 0.02 0.03 0.02 0.02 0.03 0.03 0.03 0.05 0.07 0.06 0.10 0.14 0.22 0.36 0.50
0.00 0.01 0.03 0.07 0.19 0.13 0.04 0.01 0.00 0.01 0.02 0.06 0.09 0.07 0.04 0.06 0.06 0.04 0.05 0.05 0.02 0.02 0.07 0.10 0.12 0.16 0.17 0.21 0.26 0.33 0.39 0.35
0.00 0.00 0.01 0.02 0.07 0.04 0.02 0.02 0.01 0.00 0.01 0.04 0.04 0.05 0.06 0.06 0.09 0.08 0.07 0.04 0.05 0.10 0.14 0.24 0.30 0.27 0.21 0.20 0.16 0.15 0.16 0.16
0.00 0.00 0.00 0.00 0.03 0.04 0.02 0.05 0.02 0.00 0.00 0.02 0.03 0.06 0.06 0.10 0.14 0.15 0.15 0.10 0.10 0.18 0.28 0.27 0.22 0.19 0.15 0.11 0.09 0.07 0.06 0.04
0.00 0.00 0.00 0.00 0.05 0.06 0.03 0.05 0.03 0.01 0.01 0.03 0.07 0.11 0.13 0.15 0.15 0.14 0.16 0.20 0.22 0.21 0.19 0.19 0.17 0.11 0.07 0.05 0.03 0.01 0.00 0.00
0.00 0.00 0.00 0.01 0.03 0.07 0.04 0.06 0.04 0.04 0.09 0.12 0.14 0.13 0.11 0.12 0.20 0.30 0.31 0.31 0.30 0.21 0.20 0.16 0.08 0.03 0.01 0.00 0.00 0.00 0.00 0.00
0.00 0.00 0.00 0.04 0.10 0.14 0.10 0.22 0.17 0.22 0.21 0.16 0.11 0.08 0.08 0.12 0.16 0.28 0.39 0.32 0.26 0.24 0.22 0.14 0.04 0.01 0.02 0.01 0.00 0.00 0.00 0.00
0.01 0.01 0.03 0.08 0.14 0.16 0.18 0.22 0.23 0.22 0.22 0.18 0.14 0.20 0.31 0.33 0.35 0.29 0.22 0.17 0.11 0.07 0.05 0.02 0.03 0.04 0.02 0.00 0.00 0.00 0.01 0.01
0.02 0.03 0.03 0.09 0.16 0.14 0.12 0.18 0.19 0.15 0.13 0.15 0.28 0.36 0.31 0.31 0.27 0.16 0.07 0.04 0.06 0.06 0.04 0.04 0.01 0.00 0.00 0.00 0.00 0.00 0.00 0.01
0.02 0.02 0.03 0.04 0.10 0.14 0.18 0.17 0.16 0.13 0.11 0.11 0.14 0.14 0.15 0.08 0.02 0.02 0.07 0.09 0.06 0.03 0.01 0.00 0.01 0.03 0.00 0.00 0.00 0.00 0.01 0.01
0.02 0.00 0.01 0.01 0.03 0.05 0.11 0.09 0.10 0.08 0.06 0.05 0.03 0.01 0.00 0.01 0.05 0.08 0.08 0.06 0.03 0.01 0.00 0.01 0.02 0.03 0.00 0.00 0.00 0.01 0.01 0.01

GFSFLT1_prec_precacc_078.txt.gz
Total_Precipitation_Accumulation
0.02 0.01 0.01 0.01 0.02 0.06 0.43 0.82 1.14 1.22 1.74 1.51 0.88 0.35 0.27 0.26 0.22 0.31 0.23 0.06 0.01 0.08 0.02 0.00 0.00 0.00 0.00 0.00 0.00 0.00 0.00 0.00
0.00 0.00 0.02 0.04 0.08 0.27 0.70 0.98 1.22 0.98 0.68 0.23 0.05 0.07 0.14 0.23 0.20 0.20 0.12 0.09 0.00 0.02 0.01 0.00 0.00 0.00 0.00 0.00 0.00 0.00 0.00 0.00
0.01 0.03 0.09 0.13 0.26 0.36 0.40 0.28 0.29 0.13 0.05 0.00 0.01 0.03 0.09 0.16 0.23 0.10 0.06 0.09 0.07 0.01 0.01 0.00 0.00 0.00 0.00 0.00 0.00 0.00 0.00 0.00
0.02 0.08 0.12 0.14 0.14 0.17 0.06 0.05 0.15 0.11 0.05 0.06 0.09 0.15 0.13 0.12 0.25 0.14 0.02 0.04 0.05 0.02 0.00 0.00 0.00 0.00 0.00 0.00 0.00 0.00 0.00 0.00
0.01 0.01 0.01 0.02 0.01 0.03 0.02 0.06 0.11 0.15 0.19 0.22 0.18 0.16 0.14 0.09 0.09 0.05 0.04 0.03 0.02 0.01 0.01 0.00 0.00 0.00 0.00 0.00 0.00 0.00 0.00 0.00
0.00 0.01 0.02 0.01 0.04 0.04 0.09 0.13 0.14 0.11 0.17 0.31 0.19 0.17 0.18 0.18 0.09 0.09 0.08 0.07 0.05 0.06 0.01 0.00 0.00 0.00 0.00 0.00 0.00 0.00 0.00 0.00
0.01 0.02 0.02 0.03 0.11 0.17 0.15 0.13 0.14 0.14 0.21 0.26 0.26 0.18 0.14 0.10 0.08 0.09 0.07 0.04 0.03 0.00 0.00 0.00 0.00 0.00 0.00 0.00 0.00 0.00 0.00 0.01
0.01 0.02 0.06 0.09 0.20 0.21 0.16 0.13 0.11 0.15 0.19 0.26 0.20 0.14 0.09 0.08 0.04 0.04 0.04 0.03 0.02 0.01 0.01 0.01 0.00 0.01 0.02 0.03 0.03 0.03 0.06 0.11
0.00 0.03 0.06 0.10 0.30 0.22 0.10 0.04 0.03 0.05 0.08 0.15 0.13 0.11 0.10 0.08 0.06 0.04 0.03 0.02 0.03 0.04 0.03 0.03 0.05 0.07 0.06 0.10 0.14 0.22 0.36 0.50
0.00 0.01 0.03 0.07 0.19 0.13 0.04 0.01 0.00 0.01 0.02 0.06 0.10 0.09 0.04 0.10 0.15 0.08 0.05 0.05 0.03 0.03 0.07 0.11 0.12 0.16 0.17 0.21 0.26 0.35 0.41 0.36
0.00 0.00 0.01 0.03 0.08 0.04 0.02 0.02 0.01 0.00 0.01 0.04 0.04 0.05 0.07 0.08 0.11 0.08 0.08 0.06 0.07 0.11 0.15 0.25 0.31 0.27 0.22 0.22 0.21 0.20 0.18 0.16
0.00 0.00 0.00 0.00 0.03 0.06 0.02 0.05 0.02 0.00 0.00 0.02 0.04 0.11 0.11 0.13 0.16 0.16 0.17 0.14 0.14 0.22 0.35 0.38 0.33 0.26 0.24 0.23 0.17 0.10 0.06 0.04
0.00 0.00 0.00 0.00 0.05 0.07 0.03 0.05 0.03 0.01 0.01 0.04 0.12 0.25 0.16 0.20 0.24 0.17 0.19 0.26 0.34 0.47 0.54 0.43 0.31 0.21 0.14 0.09 0.05 0.02 0.01 0.00
0.00 0.00 0.00 0.01 0.03 0.07 0.04 0.07 0.05 0.04 0.13 0.20 0.22 0.28 0.13 0.17 0.24 0.33 0.34 0.32 0.34 0.29 0.26 0.24 0.21 0.15 0.09 0.04 0.01 0.00 0.00 0.00
0.00 0.00 0.00 0.04 0.10 0.14 0.10 0.22 0.20 0.26 0.35 0.37 0.29 0.15 0.13 0.20 0.21 0.31 0.40 0.32 0.26 0.25 0.25 0.24 0.13 0.05 0.03 0.01 0.00 0.00 0.00 0.00
0.01 0.01 0.03 0.08 0.14 0.16 0.18 0.22 0.26 0.31 0.32 0.25 0.19 0.26 0.42 0.41 0.37 0.31 0.23 0.18 0.12 0.09 0.07 0.04 0.03 0.04 0.02 0.00 0.00 0.00 0.01 0.01
0.02 0.03 0.03 0.09 0.16 0.14 0.14 0.22 0.23 0.19 0.16 0.20 0.36 0.47 0.40 0.38 0.30 0.16 0.07 0.04 0.06 0.06 0.04 0.04 0.01 0.00 0.00 0.00 0.00 0.00 0.00 0.01
0.02 0.02 0.03 0.04 0.10 0.16 0.19 0.19 0.18 0.15 0.14 0.16 0.20 0.20 0.19 0.10 0.03 0.02 0.07 0.10 0.06 0.03 0.01 0.00 0.01 0.03 0.00 0.00 0.00 0.00 0.01 0.01
0.02 0.00 0.01 0.01 0.03 0.06 0.11 0.10 0.11 0.10 0.09 0.09 0.06 0.04 0.02 0.01 0.05 0.08 0.08 0.06 0.03 0.01 0.00 0.01 0.02 0.03 0.00 0.00 0.00 0.01 0.01 0.01

GFSFLT1_prec_precacc_084.txt.gz
Total_Precipitation_Accumulation
0.03 0.02 0.01 0.04 0.03 0.07 0.46 0.87 1.15 1.25 1.76 1.54 0.91 0.37 0.28 0.27 0.23 0.31 0.25 0.18 0.24 0.21 0.11 0.03 0.02 0.00 0.00 0.00 0.00 0.00 0.00 0.00
0.01 0.01 0.04 0.05 0.08 0.27 0.71 0.98 1.22 0.99 0.68 0.23 0.06 0.08 0.15 0.23 0.21 0.22 0.15 0.17 0.10 0.15 0.07 0.04 0.00 0.00 0.00 0.00 0.00 0.00 0.00 0.00
0.01 0.03 0.09 0.13 0.26 0.36 0.40 0.28 0.29 0.13 0.05 0.00 0.01 0.03 0.09 0.16 0.23 0.12 0.11 0.19 0.18 0.07 0.02 0.07 0.00 0.00 0.00 0.00 0.00 0.00 0.00 0.00
0.02 0.08 0.12 0.14 0.14 0.17 0.06 0.05 0.15 0.11 0.05 0.06 0.09 0.15 0.14 0.13 0.28 0.20 0.09 0.18 0.28 0.22 0.02 0.02 0.00 0.00 0.00 0.00 0.00 0.00 0.00 0.00
0.01 0.01 0.01 0.02 0.01 0.03 0.02 0.06 0.11 0.15 0.19 0.23 0.18 0.16 0.14 0.09 0.09 0.06 0.07 0.08 0.09 0.07 0.01 0.01 0.00 0.00 0.00 0.00 0.00 0.00 0.00 0.00
0.00 0.01 0.02 0.01 0.04 0.04 0.09 0.13 0.14 0.11 0.17 0.31 0.19 0.17 0.18 0.18 0.09 0.09 0.08 0.10 0.08 0.08 0.02 0.03 0.02 0.00 0.00 0.00 0.00 0.00 0.00 0.00
0.01 0.02 0.02 0.03 0.11 0.17 0.15 0.13 0.14 0.14 0.21 0.26 0.26 0.18 0.14 0.10 0.08 0.09 0.07 0.05 0.06 0.02 0.01 0.00 0.01 0.01 0.02 0.01 0.00 0.00 0.00 0.01
0.02 0.02 0.06 0.09 0.20 0.21 0.16 0.13 0.11 0.15 0.19 0.26 0.20 0.14 0.09 0.08 0.04 0.04 0.04 0.03 0.03 0.02 0.02 0.02 0.01 0.02 0.03 0.03 0.03 0.04 0.06 0.11
0.01 0.04 0.06 0.10 0.30 0.22 0.10 0.04 0.03 0.05 0.08 0.15 0.13 0.13 0.10 0.08 0.07 0.12 0.06 0.03 0.03 0.04 0.04 0.03 0.06 0.07 0.06 0.11 0.16 0.25 0.45 0.64
0.00 0.02 0.04 0.09 0.20 0.14 0.04 0.01 0.00 0.01 0.02 0.06 0.11 0.14 0.07 0.13 0.31 0.18 0.17 0.08 0.05 0.04 0.11 0.12 0.13 0.16 0.19 0.24 0.37 0.54 0.60 0.54
0.00 0.01 0.02 0.05 0.14 0.10 0.11 0.08 0.02 0.00 0.01 0.04 0.04 0.13 0.15 0.17 0.29 0.13 0.16 0.18 0.22 0.32 0.29 0.29 0.32 0.31 0.34 0.51 0.57 0.52 0.43 0.35
0.00 0.00 0.00 0.04 0.11 0.13 0.11 0.20 0.14 0.05 0.02 0.02 0.04 0.18 0.18 0.28 0.28 0.32 0.28 0.43 0.47 0.48 0.53 0.51 0.61 0.68 0.59 0.44 0.32 0.24 0.17 0.12
0.00 0.00 0.00 0.01 0.10 0.14 0.07 0.16 0.15 0.10 0.09 0.11 0.13 0.30 0.35 0.40 0.54 0.51 0.57 0.63 0.58 0.63 0.68 0.52 0.37 0.25 0.18 0.14 0.11 0.08 0.05 0.03
0.00 0.00 0.00 0.01 0.05 0.12 0.09 0.12 0.11 0.15 0.26 0.33 0.23 0.37 0.39 0.66 0.75 0.97 1.02 0.86 0.57 0.38 0.31 0.26 0.22 0.16 0.10 0.08 0.06 0.03 0.03 0.02
0.00 0.00 0.00 0.04 0.10 0.15 0.15 0.27 0.24 0.31 0.38 0.39 0.31 0.33 0.43 0.55 0.64 0.72 0.79 0.44 0.35 0.35 0.34 0.29 0.15 0.07 0.06 0.06 0.05 0.03 0.03 0.02
0.01 0.01 0.03 0.08 0.14 0.16 0.18 0.25 0.28 0.37 0.42 0.48 0.42 0.56 0.90 0.92 0.91 0.60 0.37 0.26 0.20 0.14 0.09 0.05 0.05 0.06 0.06 0.04 0.02 0.01 0.02 0.02
0.02 0.03 0.03 0.09 0.16 0.14 0.14 0.23 0.27 0.29 0.29 0.30 0.48 0.61 0.51 0.54 0.44 0.29 0.14 0.07 0.09 0.08 0.05 0.05 0.04 0.04 0.11 0.08 0.03 0.01 0.01 0.01
0.02 0.02 0.03 0.04 0.10 0.17 0.19 0.20 0.21 0.20 0.18 0.21 0.27 0.26 0.23 0.16 0.08 0.06 0.10 0.12 0.08 0.05 0.02 0.02 0.03 0.05 0.04 0.02 0.01 0.01 0.01 0.01
0.02 0.00 0.01 0.01 0.05 0.07 0.12 0.11 0.12 0.12 0.12 0.11 0.08 0.05 0.03 0.04 0.08 0.12 0.11 0.11 0.07 0.04 0.04 0.05 0.07 0.07 0.05 0.03 0.01 0.01 0.01 0.01